Cloud_Cover
0 0 0 8 8 0 0 0 0 0 0 0 0 0 0 0 0 0 0 0 0 0 0 0 0 0 0 0 0 0 0 0 0 0 0 0 0 0 0 0 0 0 0 0 0 0 0 0 0 0 0 0 0 0 0 0 0 0 0 20 36 44 44 32 24 12 12 0 0 8 36 80 56 24 36 20 24 44 68 88 68 56 64 88 64 36 48 48 36 12 0 0 0 8 20 24 48 48 0 0 0 0 0
0 0 0 0 0 0 0 0 0 0 0 0 0 0 0 0 0 0 0 0 0 0 0 0 0 0 0 0 0 0 0 0 0 0 0 0 0 0 0 0 0 0 0 0 0 0 0 0 0 0 0 0 0 0 0 0 0 0 0 36 32 8 12 8 8 20 64 20 0 0 12 76 88 76 68 76 80 88 92 80 68 68 64 68 48 24 20 36 24 8 12 8 0 0 0 20 36 44 20 8 0 0 0
0 0 0 0 0 0 0 0 0 0 0 0 0 0 0 0 0 0 0 0 0 0 0 0 0 0 0 0 0 0 0 0 0 0 0 0 0 0 0 0 0 0 0 0 0 0 0 0 0 0 0 0 0 0 0 0 0 0 0 8 0 0 0 0 0 8 12 0 0 0 8 76 92 92 92 92 92 92 92 92 76 48 36 20 12 12 12 8 0 0 8 0 0 8 0 0 8 8 20 0 0 0 0
0 0 0 0 0 0 0 0 0 0 0 0 0 0 0 0 0 0 0 0 0 0 0 0 0 0 0 0 0 0 0 0 0 0 0 0 0 0 0 0 0 0 0 0 0 0 0 0 0 0 0 0 0 0 0 0 0 0 0 0 0 0 0 0 0 0 0 0 0 0 0 68 92 88 80 88 92 92 92 76 76 64 8 0 0 8 0 0 0 0 0 0 0 0 0 8 0 0 0 0 0 0 0
0 0 0 0 0 0 0 0 0 0 0 0 0 0 0 0 0 0 0 0 0 0 0 0 0 0 0 0 0 0 0 0 0 0 0 0 0 0 0 0 0 0 0 0 0 0 0 0 0 0 0 0 0 0 0 0 0 0 0 0 0 0 0 0 0 0 0 0 0 0 8 36 68 88 48 56 68 88 92 92 92 68 0 0 0 0 0 0 0 0 0 0 0 0 0 0 0 8 0 0 0 0 0
0 0 0 0 0 0 0 0 0 0 0 0 0 0 0 0 0 0 0 0 0 0 0 0 0 0 0 0 0 0 0 0 0 0 0 0 0 0 0 0 0 0 0 0 0 0 0 0 0 0 0 0 0 0 0 0 0 0 0 0 0 0 0 0 0 0 0 0 0 0 0 24 48 56 36 36 44 64 80 92 88 68 36 12 0 0 0 0 0 0 0 0 0 0 0 0 8 12 8 8 8 0 0
0 0 0 0 0 0 0 0 0 0 0 0 0 0 0 0 0 0 0 0 0 0 0 0 0 0 0 0 0 0 0 0 0 0 0 0 0 0 0 0 0 0 0 0 0 0 0 0 0 0 0 0 0 0 0 0 0 0 0 0 0 0 8 0 0 0 0 0 0 8 0 0 12 32 32 48 64 68 76 48 48 48 32 44 32 12 0 44 32 8 0 8 8 0 0 0 0 0 0 0 0 0 0
0 0 0 8 0 0 0 0 0 0 0 0 0 0 0 0 0 0 0 0 0 0 0 0 0 0 0 0 0 0 0 0 0 0 0 0 0 0 0 0 0 0 0 0 0 0 0 0 0 0 0 0 0 0 0 0 0 0 0 0 0 0 0 0 0 0 0 0 0 0 0 0 0 8 20 32 36 32 20 36 48 48 48 48 56 56 68 88 92 80 44 44 32 20 20 0 0 0 0 0 0 0 0
0 0 12 0 0 0 0 0 0 0 0 0 0 0 0 0 0 0 0 0 0 0 0 0 0 0 0 0 0 0 0 0 0 0 0 0 0 0 0 0 0 0 0 0 0 0 0 0 0 0 0 0 0 0 0 0 0 0 0 0 0 0 0 0 0 0 0 0 0 0 0 0 0 0 12 12 20 20 0 0 0 12 44 56 48 44 44 12 8 20 44 8 0 0 0 0 0 0 0 0 0 0 0
0 0 0 0 0 0 0 0 0 0 0 0 0 0 0 0 0 0 0 0 0 0 0 0 0 0 0 0 0 0 0 0 0 0 0 0 0 0 0 0 0 0 0 0 0 0 0 0 0 0 0 0 0 0 0 0 0 0 0 0 0 0 0 0 0 0 0 0 0 0 0 0 0 0 0 8 8 8 20 8 0 0 0 0 0 0 0 0 0 0 0 0 0 0 0 0 0 0 0 0 0 0 0
0 0 0 0 0 0 0 0 0 0 0 0 0 0 0 0 0 0 0 0 0 0 0 0 0 0 0 0 0 0 0 0 0 0 0 0 0 0 0 0 0 0 0 0 0 0 0 0 0 0 0 0 0 0 0 0 0 0 0 0 0 0 0 0 0 0 0 0 0 0 0 0 0 0 0 0 0 0 8 0 0 0 0 0 0 0 0 0 0 0 0 0 0 0 0 0 0 0 0 0 0 0 0
0 0 0 0 0 0 0 0 0 0 0 0 0 0 0 0 0 0 0 0 0 0 0 0 0 0 0 0 0 0 0 0 0 0 0 0 0 0 0 0 0 0 0 0 0 0 0 0 0 0 0 0 0 0 0 0 0 0 0 0 0 0 0 0 8 12 0 0 0 0 0 0 0 0 0 0 0 0 0 0 0 0 0 0 0 0 0 0 0 0 0 0 0 0 0 0 0 0 0 0 0 0 0
0 0 0 0 0 0 0 0 0 0 0 0 0 0 0 0 0 0 0 0 0 0 0 0 0 0 0 0 0 0 0 0 0 0 0 0 0 0 0 0 0 0 0 0 0 0 0 0 0 0 0 0 0 0 0 0 0 0 0 0 0 0 20 12 20 20 0 0 0 0 0 0 0 0 0 0 0 0 0 0 0 0 0 0 0 0 0 0 0 0 0 0 0 0 0 0 0 0 0 0 0 0 0
0 0 0 0 0 0 0 0 0 0 0 0 0 0 0 0 0 0 0 0 0 0 0 0 0 0 0 0 0 0 0 0 0 0 0 0 0 0 0 0 0 0 0 0 0 0 0 0 0 0 0 0 0 0 0 0 0 0 0 0 0 0 20 32 20 8 0 0 0 0 0 0 0 0 0 0 0 0 0 0 0 0 0 0 0 0 0 0 0 0 0 0 0 0 0 0 0 0 0 0 0 0 0
0 0 0 0 0 0 0 0 0 0 0 0 0 0 0 0 0 0 0 0 0 0 0 0 0 0 0 8 0 0 0 0 0 0 0 0 0 0 0 0 0 0 0 0 0 0 0 0 0 0 0 0 0 0 0 0 0 0 0 0 0 0 20 32 36 24 0 0 0 0 0 0 0 0 8 0 0 0 0 0 0 0 0 0 0 0 0 0 0 0 0 0 0 0 0 0 0 0 0 0 0 0 0
0 0 0 0 0 0 0 0 0 0 0 0 0 0 0 0 0 0 0 0 0 0 0 0 0 0 0 24 20 0 0 0 0 0 0 0 0 0 0 0 0 0 0 0 0 0 0 0 0 0 0 0 0 0 0 0 0 0 0 0 0 0 0 36 44 24 0 0 0 0 0 0 0 8 20 12 0 0 0 0 0 0 0 0 0 0 0 0 0 0 0 0 0 0 0 0 0 0 0 0 0 0 0
0 0 0 0 0 0 0 0 0 0 0 0 0 0 0 0 0 0 0 0 0 0 0 0 0 0 8 32 20 0 0 0 0 0 0 0 0 0 0 0 0 0 0 0 0 0 0 0 0 0 0 0 0 0 0 0 0 0 0 0 0 0 0 32 44 32 12 8 0 0 0 0 0 8 12 20 20 8 0 0 0 0 0 0 0 0 0 0 0 0 0 0 0 0 0 0 0 0 0 0 0 0 0
0 0 0 0 0 0 0 0 0 0 0 0 0 0 0 0 0 0 0 0 0 0 0 0 0 8 24 36 20 0 0 0 0 0 0 0 0 0 0 0 0 0 0 0 0 0 0 0 0 0 0 0 0 0 0 0 0 0 0 0 0 0 0 12 24 32 36 20 8 0 0 0 0 8 20 32 32 12 0 0 0 0 0 0 0 0 0 0 0 0 0 0 0 0 0 0 0 0 0 0 0 0 0
0 0 0 0 0 0 0 0 0 0 0 0 0 0 0 0 0 0 0 0 0 0 0 0 8 20 44 44 20 0 0 0 0 0 0 0 0 0 0 0 0 0 0 0 0 0 0 0 0 0 0 0 0 0 0 0 8 8 0 0 0 0 0 0 8 20 56 44 24 8 0 0 8 20 36 48 32 8 0 0 0 0 0 0 0 0 0 0 0 0 0 0 0 0 0 0 0 0 0 0 0 0 0
0 8 20 0 0 0 0 12 24 24 0 0 0 0 0 0 0 0 0 0 0 8 24 20 20 24 36 20 8 0 0 0 0 0 0 0 0 0 0 0 0 0 0 0 0 0 0 0 0 0 0 0 0 0 0 0 8 8 0 0 0 0 0 0 0 12 48 44 32 12 8 8 12 20 24 48 32 0 0 0 0 0 0 0 0 0 0 0 0 0 0 0 0 0 0 0 0 0 0 0 0 0 0
8 12 24 8 0 0 0 48 56 44 8 0 0 0 0 0 0 0 0 0 12 32 44 36 24 12 12 12 8 0 0 0 0 0 0 0 0 0 0 0 0 0 0 0 0 0 0 0 0 0 0 0 0 0 0 0 12 20 0 0 0 0 0 0 0 0 12 36 36 20 20 20 12 12 20 20 12 0 0 0 0 0 0 0 0 0 0 0 0 0 0 0 0 0 0 0 0 0 0 0 0 0 0
8 8 8 0 8 12 12 36 32 20 12 0 0 0 0 0 0 0 0 0 12 20 24 32 20 8 12 12 8 0 0 0 0 0 0 0 0 0 0 0 0 0 0 0 0 0 0 0 0 0 0 0 0 0 0 20 32 24 0 0 0 0 0 0 0 0 0 20 24 20 24 20 20 24 36 12 0 0 0 0 0 0 0 0 0 0 0 0 0 0 0 0 0 0 0 0 0 0 0 0 0 0 0
8 8 0 0 12 24 24 36 36 24 24 36 20 0 0 0 8 8 0 0 0 8 12 12 20 24 48 20 8 8 0 0 0 0 0 0 0 0 0 0 0 0 0 0 0 0 0 0 0 0 0 0 0 0 0 24 32 24 0 0 0 0 0 0 0 0 8 12 12 12 20 20 24 32 20 12 8 0 0 0 0 0 0 0 0 0 0 0 0 0 0 0 0 0 0 0 0 0 0 0 0 0 0
12 0 0 0 24 48 44 56 56 44 24 48 32 0 0 8 8 8 0 0 0 0 0 12 20 36 76 56 44 36 56 32 12 0 0 0 0 0 0 0 0 0 0 0 0 0 0 0 0 0 0 0 0 0 0 12 20 12 0 0 0 0 0 0 0 0 0 12 12 8 20 24 36 44 36 20 8 0 0 0 0 0 0 0 0 0 0 0 0 0 0 0 0 0 0 0 0 0 0 0 0 0 0
12 0 0 0 36 76 68 48 48 56 56 68 44 12 0 12 24 24 8 12 8 0 8 8 8 20 36 32 48 56 32 20 8 0 0 0 0 0 0 0 0 0 0 0 0 0 0 0 0 0 0 0 0 0 0 0 12 20 8 0 0 0 0 0 0 0 0 0 0 0 8 36 44 44 48 24 12 8 8 0 0 0 0 0 0 0 0 0 0 0 0 0 0 0 0 0 0 0 0 0 0 0 0
12 8 0 0 20 36 64 64 68 68 68 80 68 48 36 48 56 56 48 48 32 8 0 0 8 8 8 8 12 20 0 0 0 0 0 0 0 0 0 0 0 0 0 0 0 0 0 0 0 0 0 0 0 0 0 0 12 20 8 0 0 0 0 0 0 0 0 0 0 0 12 20 32 44 36 56 44 20 12 8 0 0 0 0 0 0 0 0 0 0 0 0 0 0 0 0 0 0 0 0 0 0 0
8 8 12 32 32 36 80 48 36 44 48 56 76 80 68 36 24 36 64 32 32 32 8 0 0 0 0 0 0 0 0 0 0 0 0 0 0 0 0 0 0 0 0 0 0 0 0 0 0 0 0 0 0 0 0 0 0 8 8 0 0 0 0 0 0 0 0 0 0 0 0 0 8 20 32 44 44 36 24 20 8 0 0 0 0 0 0 0 0 0 0 0 0 0 0 0 0 0 0 0 0 0 0
8 20 56 48 36 36 64 32 24 24 20 68 80 68 76 56 56 56 56 48 44 32 12 8 0 0 0 0 0 0 0 0 0 0 0 0 0 0 0 0 0 0 0 0 0 0 0 0 0 0 0 0 0 0 0 0 0 8 8 8 0 0 0 0 0 0 0 0 0 0 0 0 0 8 12 8 0 0 0 12 8 0 0 0 0 0 0 0 0 0 0 0 0 0 0 0 0 0 0 0 0 0 0
20 24 44 44 44 36 32 20 12 24 64 80 88 88 88 88 68 56 56 64 64 56 56 20 8 0 0 0 0 0 0 0 0 0 0 0 0 0 0 0 0 0 0 0 0 0 0 0 0 0 0 0 0 0 0 0 0 0 8 8 0 0 0 0 0 0 0 0 0 0 0 0 0 0 8 0 0 0 0 0 8 8 0 0 0 0 0 0 0 0 0 0 0 0 0 0 0 0 0 0 0 0 0
32 32 44 44 48 48 12 8 8 8 24 32 24 24 48 80 76 64 76 64 64 68 68 64 32 8 0 0 0 0 0 0 0 0 0 0 0 0 0 0 0 0 0 0 0 0 0 0 0 0 0 0 0 0 0 0 0 0 0 8 0 0 0 0 0 0 0 0 0 0 0 0 0 0 12 8 0 0 0 0 20 24 8 8 0 0 0 0 0 0 0 0 0 0 0 0 0 0 0 0 0 0 0
12 8 12 44 56 44 20 12 8 8 12 20 36 44 36 36 44 48 64 68 48 36 68 64 36 12 8 8 0 0 0 0 0 0 0 0 0 0 0 0 0 0 0 0 0 0 0 0 0 0 0 0 0 0 0 0 0 0 0 8 8 0 0 0 0 0 0 0 0 0 0 0 0 0 0 32 20 0 8 12 20 20 12 20 12 8 0 0 0 0 0 0 0 0 0 0 0 0 0 0 0 0 0
0 8 8 12 20 20 24 24 12 8 8 12 20 20 20 24 32 32 44 56 32 12 12 24 20 12 8 8 8 0 0 0 0 0 0 0 0 0 0 0 0 0 0 0 0 0 0 0 0 0 0 0 0 0 0 0 0 0 0 0 0 0 0 0 0 0 0 0 0 0 0 0 0 0 0 0 8 8 8 20 24 20 32 12 20 24 20 0 0 0 0 0 0 0 0 0 0 0 0 0 0 0 0
0 0 0 8 8 8 8 20 12 8 8 8 8 8 8 12 20 24 24 24 36 32 8 24 32 24 20 8 8 8 8 0 0 0 0 0 0 0 0 0 0 0 0 0 0 0 0 0 0 0 0 0 0 0 0 0 0 0 0 0 0 0 0 0 0 0 0 0 0 0 0 0 0 0 0 0 0 0 0 0 12 32 36 24 20 20 24 8 0 0 0 0 0 0 0 0 0 0 0 0 0 0 0
0 0 0 0 0 0 8 0 0 0 0 8 8 8 8 12 20 32 56 56 64 76 68 68 68 64 36 36 24 12 8 0 0 0 0 0 0 0 0 0 0 0 0 0 0 0 0 0 0 0 0 0 0 0 0 0 0 0 0 0 0 0 0 0 0 0 0 0 0 0 0 0 0 0 0 0 0 0 8 8 8 12 36 36 20 8 0 0 0 0 0 0 0 0 0 0 0 0 0 0 0 0 0
0 0 0 0 0 0 0 0 0 0 0 8 8 8 8 36 44 48 48 68 80 80 68 64 76 80 80 44 24 8 8 0 0 0 0 0 0 0 0 0 0 0 0 0 0 0 0 0 0 0 0 0 0 0 0 0 0 0 0 0 0 0 0 0 0 0 0 0 0 0 0 0 0 0 0 0 0 0 0 0 0 8 12 24 24 20 8 8 0 0 0 0 0 0 0 0 0 0 0 0 0 0 0
0 0 0 0 0 0 0 0 0 0 0 0 0 8 8 36 56 56 64 64 68 64 68 64 64 64 56 32 20 12 8 0 0 0 0 0 0 0 0 0 0 0 0 0 0 0 0 0 0 0 0 0 0 0 0 0 0 0 0 0 0 0 0 0 0 0 0 0 0 0 0 0 0 0 0 0 0 0 0 0 0 0 0 8 12 12 20 32 20 0 0 0 0 8 0 12 12 0 0 0 0 0 0
0 0 0 0 8 8 8 8 0 0 0 0 0 0 0 8 20 32 36 36 32 32 56 64 56 44 32 20 8 8 0 0 0 0 0 0 0 0 0 0 0 0 0 0 0 0 0 0 0 0 0 0 0 0 0 0 0 0 0 0 0 0 0 0 0 0 0 0 0 0 0 0 0 0 0 0 0 0 0 0 0 0 0 0 8 12 20 20 20 20 0 0 12 24 20 44 44 24 8 8 0 0 0
0 0 8 8 8 8 8 8 8 8 8 8 8 0 0 0 0 8 8 8 12 20 24 36 24 12 20 12 8 0 0 0 0 0 0 0 0 0 0 0 0 0 0 0 0 0 0 0 0 0 0 0 0 0 0 0 0 0 0 0 0 0 0 8 8 8 8 20 12 8 0 0 0 0 0 0 0 0 8 0 0 0 0 0 0 0 8 12 12 8 8 8 12 24 36 32 44 44 32 32 12 0 0
8 8 8 8 8 8 8 8 8 8 8 8 8 0 0 0 0 8 8 12 32 44 32 20 20 32 36 20 12 8 0 0 0 0 0 0 0 0 0 0 0 0 0 0 0 0 0 0 0 0 0 0 0 0 0 0 0 0 0 0 0 8 8 24 32 36 32 20 20 20 20 12 8 8 8 8 8 8 8 8 8 8 8 0 0 0 8 0 0 0 8 8 8 20 32 36 44 56 56 48 32 12 0
8 8 8 8 8 8 8 8 8 8 8 8 8 8 8 8 8 12 24 36 48 56 48 44 24 8 8 12 8 0 0 0 0 0 0 0 0 0 0 0 0 0 0 0 0 0 0 0 0 0 0 0 0 0 0 0 0 0 0 0 0 0 12 24 24 24 20 0 8 12 20 12 0 0 0 0 0 0 0 0 8 8 8 8 8 8 0 0 0 0 0 0 0 8 12 32 48 64 56 56 48 32 12
8 8 8 8 8 8 12 12 8 8 8 8 8 8 8 8 8 20 44 56 64 64 56 56 24 0 0 0 0 0 0 0 0 0 0 0 0 0 0 0 0 0 0 0 0 0 0 0 0 0 0 0 0 0 0 0 0 0 0 0 0 0 0 0 0 0 0 0 0 0 0 0 0 0 0 0 0 0 0 0 0 0 8 8 8 8 8 8 0 0 0 0 8 8 8 20 36 56 56 48 56 48 24
12 12 12 12 12 12 12 12 12 12 12 12 12 12 8 8 8 12 24 32 32 36 64 48 24 0 0 0 0 0 0 0 8 12 8 8 0 0 0 0 0 0 0 0 0 0 0 0 0 0 0 0 0 0 0 0 0 0 0 0 0 0 0 0 0 0 0 0 0 0 0 0 0 0 0 0 0 0 0 0 0 0 0 0 8 12 12 8 8 8 8 12 12 12 12 12 24 44 48 48 56 64 48
12 12 12 12 12 12 12 12 12 20 20 20 20 12 0 8 0 8 12 0 0 8 32 48 32 0 0 0 0 0 0 0 12 32 36 24 20 12 12 0 0 0 0 0 0 0 8 0 0 0 0 0 0 0 0 0 0 0 0 0 0 0 0 0 0 0 0 0 0 0 0 0 0 0 0 0 0 0 0 0 0 0 0 0 0 8 8 12 8 8 8 12 12 20 24 24 24 32 44 44 48 64 80
12 12 12 12 20 20 20 20 24 24 20 12 8 8 0 8 8 8 12 8 0 0 12 56 44 8 0 0 0 0 0 0 8 24 56 36 32 24 20 12 8 0 0 0 0 0 8 0 0 0 0 0 0 0 0 0 0 0 0 0 0 0 0 0 0 0 0 0 0 0 0 0 0 0 0 0 0 0 0 0 0 0 0 0 0 8 12 12 12 12 8 8 8 12 36 36 44 48 36 36 44 56 76
12 12 12 20 20 20 24 24 24 20 8 8 8 8 12 8 8 0 0 44 24 0 20 76 80 56 32 12 0 0 0 0 0 12 44 44 44 36 36 24 36 44 44 32 12 8 8 0 0 0 0 0 0 0 0 0 0 0 0 0 0 0 0 0 0 0 0 0 0 0 0 0 0 0 0 0 0 0 0 0 0 0 0 0 0 12 20 20 20 12 12 12 8 12 32 32 32 36 48 44 44 48 56
12 12 20 20 24 32 32 20 12 8 0 12 12 12 12 0 0 0 0 68 76 64 64 80 92 92 80 64 36 8 0 0 0 0 12 12 32 44 44 44 56 68 76 64 48 32 12 8 0 0 0 0 0 0 0 0 0 0 0 0 0 0 0 0 0 0 0 0 0 0 0 0 0 0 0 0 0 0 0 0 0 0 0 0 0 8 20 24 24 24 20 20 12 12 20 24 24 24 36 48 48 48 44
20 20 24 32 32 24 20 12 8 12 12 8 8 0 0 0 0 0 0 20 64 92 92 88 80 76 88 92 64 24 0 0 0 0 0 0 8 20 48 56 64 68 68 64 64 48 32 12 0 0 0 0 0 0 0 0 0 0 0 0 0 0 0 0 0 0 0 0 0 0 0 0 0 0 0 0 0 0 0 0 0 0 0 0 0 0 12 32 36 36 32 24 20 12 12 12 32 44 44 48 56 48 48
32 32 36 32 24 20 12 8 8 0 0 0 0 0 0 0 0 0 0 0 32 76 80 88 56 20 24 56 64 36 0 0 0 0 0 0 0 8 20 20 24 32 36 48 56 48 36 20 12 8 8 12 12 8 0 0 0 0 0 0 0 0 0 0 0 0 0 0 0 0 0 0 0 0 0 0 0 0 0 0 0 0 0 0 0 0 0 12 24 36 36 32 20 12 12 8 20 32 56 56 56 56 56
36 36 32 24 12 8 8 0 0 0 0 0 0 0 0 0 0 0 0 0 20 48 64 88 76 44 12 12 12 8 0 20 20 12 0 0 0 0 0 8 8 12 12 20 20 20 24 12 0 0 0 0 8 8 0 0 0 0 0 0 0 0 0 0 0 0 0 0 0 0 0 0 0 0 0 0 0 0 0 0 0 0 0 0 0 0 0 8 12 12 12 24 24 20 12 8 8 20 48 56 64 56 56
36 36 32 12 8 0 0 0 0 0 0 0 0 0 0 0 0 0 0 0 0 8 20 36 44 32 0 0 0 0 0 0 20 36 32 8 0 0 0 8 8 8 8 0 8 8 8 0 0 0 0 0 0 0 0 0 0 0 0 0 0 0 0 0 0 0 0 0 0 0 0 0 0 0 0 0 0 0 0 0 0 0 0 0 0 0 0 0 8 12 8 8 12 24 20 8 8 12 20 36 48 56 56
32 20 12 0 0 0 0 0 0 0 0 0 0 0 0 0 0 0 0 0 0 0 0 8 8 8 20 8 0 0 0 0 0 12 36 20 12 8 8 20 12 0 0 0 0 0 0 0 0 0 0 0 0 0 0 0 0 0 0 0 0 0 0 0 0 0 0 0 0 0 0 0 0 0 0 0 0 0 0 0 0 0 0 0 0 0 0 0 12 24 24 8 0 8 24 20 8 0 8 8 24 48 48
12 12 8 8 0 0 0 0 0 0 0 0 0 0 0 0 0 0 0 0 0 0 0 8 8 8 8 8 0 0 0 0 0 0 0 12 36 56 48 36 32 24 0 0 0 0 0 0 0 0 0 0 0 0 0 0 0 0 0 0 0 0 0 0 0 0 0 0 0 0 0 0 0 0 0 0 0 0 0 0 0 0 0 0 0 0 0 0 0 8 20 20 8 0 0 0 0 0 0 0 0 12 36
8 12 12 12 8 8 0 0 0 0 0 0 0 0 0 0 0 0 8 8 8 0 0 12 20 20 12 8 0 0 0 0 0 0 0 8 20 48 92 68 64 44 0 0 0 0 8 0 0 0 0 0 0 0 0 0 0 0 0 0 0 0 0 0 0 0 0 0 0 0 0 0 0 0 0 0 0 0 0 0 0 0 0 0 0 0 0 0 0 0 0 8 8 8 0 0 0 0 0 0 0 8 32
20 12 12 12 8 0 0 0 0 0 0 0 0 0 0 0 0 0 12 12 8 8 12 20 20 20 20 20 20 20 20 12 8 0 0 0 8 32 92 48 64 80 48 44 20 0 12 0 0 0 0 0 0 0 0 0 0 0 0 0 0 0 0 0 0 0 0 0 0 0 0 0 0 0 0 0 0 0 0 0 0 0 0 0 0 0 0 0 0 0 0 0 8 8 0 0 0 8 0 0 0 0 0
20 12 12 12 8 0 0 0 0 0 0 0 0 8 8 12 12 12 12 12 12 12 24 24 32 36 36 32 32 32 24 20 12 8 0 0 44 80 64 88 92 92 88 76 56 32 20 12 8 0 0 0 0 0 0 0 0 0 0 0 0 0 0 0 0 0 0 0 0 0 0 0 0 0 0 0 0 8 20 20 20 20 12 8 0 0 0 0 0 0 0 0 8 20 24 12 24 24 8 0 0 0 8
20 20 20 12 12 8 8 8 8 8 0 8 12 12 20 20 20 20 24 20 24 36 44 48 56 56 56 48 44 36 24 20 12 8 0 0 20 32 24 76 92 92 92 92 64 24 20 20 20 12 0 0 0 0 0 0 0 0 0 0 0 0 0 0 0 0 0 0 0 0 0 0 0 0 0 0 0 0 0 24 24 24 32 24 12 8 0 0 0 0 0 0 8 24 36 24 36 48 36 36 20 8 12
24 20 20 20 20 20 20 20 20 20 12 20 24 32 24 36 44 44 44 44 56 64 68 68 68 68 56 36 32 24 20 20 8 0 0 24 48 68 64 56 48 56 80 92 92 80 32 36 36 36 44 8 0 8 8 8 8 8 0 0 0 0 0 0 0 0 0 0 0 0 0 0 0 0 0 0 0 0 0 0 0 0 0 8 12 12 0 0 0 0 0 8 24 48 48 44 44 44 44 32 20 20 20
20 12 12 12 12 20 24 32 32 32 36 36 36 36 36 64 64 68 68 68 68 68 64 68 80 80 48 24 24 32 36 44 24 0 0 0 44 80 68 44 24 32 92 92 92 92 92 92 88 80 92 32 8 0 8 24 20 8 8 8 0 0 0 0 0 0 0 0 0 0 0 0 0 0 0 0 0 0 0 0 0 0 0 0 0 0 0 0 0 0 0 8 24 36 32 44 44 44 32 36 36 36 32
32 24 24 24 24 24 24 32 36 48 56 56 48 56 64 64 68 68 68 68 56 48 68 68 68 56 44 24 32 48 76 48 24 8 8 12 24 36 48 56 64 68 88 92 92 92 92 92 76 64 80 76 48 32 32 48 44 24 12 12 8 0 0 0 0 0 0 0 0 0 0 0 0 0 0 0 0 0 0 0 0 0 0 0 0 0 0 0 0 0 0 0 0 0 8 32 44 48 48 48 44 36 36
24 32 36 32 32 32 32 32 44 64 68 68 68 68 76 68 68 64 64 56 44 48 80 64 48 44 48 36 36 44 64 80 48 12 32 44 44 36 44 56 68 80 92 88 88 92 92 92 88 80 92 92 88 76 48 56 44 24 24 20 8 0 0 0 0 0 0 0 0 0 0 0 0 0 0 0 0 0 0 0 0 0 0 0 0 0 0 0 0 0 0 0 0 0 0 0 12 32 44 36 36 44 56
20 24 32 32 32 32 24 24 32 44 48 68 68 64 76 68 64 64 68 64 68 76 80 76 68 64 68 64 68 76 76 88 56 24 44 64 64 48 44 68 80 88 80 80 88 92 92 92 92 92 92 92 92 92 88 68 36 20 20 24 12 0 0 0 0 0 0 0 0 0 0 0 0 0 0 0 0 0 0 0 0 0 0 0 0 0 0 0 0 0 0 0 0 0 0 0 0 0 8 0 8 20 36